Cloud_Cover
46 31 8 72 69 70 80 76 49 41 23 17 5 23 80 100 99 93 80 99 100 100 100 100 100 100 100 100 100 100 100 100 100 100 100 55 100 100 100 100 96 50 46
82 83 60 5 5 42 51 25 54 98 24 5 5 74 8 96 35 45 79 42 59 22 49 89 100 100 100 100 92 91 100 100 100 100 100 92 99 100 100 100 99 82 55
100 100 83 51 35 7 52 82 61 100 96 10 6 5 6 5 17 25 6 21 30 77 67 73 100 100 80 99 100 100 100 100 100 100 100 100 100 100 100 100 60 100 72
100 100 100 44 51 19 50 44 55 73 46 26 90 61 40 74 24 23 5 7 64 92 92 100 92 74 100 62 52 100 100 100 100 100 100 100 100 100 100 100 100 100 100
100 100 100 94 71 87 94 92 92 98 100 100 100 100 89 98 89 44 23 94 20 60 22 72 83 77 100 100 100 100 100 100 100 100 100 100 100 100 100 100 100 100 100
100 100 100 100 100 84 100 100 95 38 80 80 78 91 92 96 100 33 67 62 75 37 66 23 11 29 37 45 100 92 98 100 100 100 100 100 100 100 100 100 100 100 100
100 100 100 96 100 100 100 100 100 90 89 100 67 82 100 100 100 100 100 25 51 60 100 68 90 24 92 72 44 83 71 100 100 100 100 100 100 100 100 100 100 100 100
100 100 19 13 5 52 47 91 97 100 100 100 95 96 97 87 72 100 100 99 100 99 78 100 75 77 17 30 100 100 61 94 100 100 100 100 100 100 100 100 100 100 100
100 74 35 48 13 98 50 42 34 100 100 100 98 98 100 98 100 100 99 100 86 99 100 100 69 60 82 72 83 100 54 100 97 100 100 100 100 100 100 100 100 100 100
100 97 100 88 99 100 100 100 100 100 100 100 100 100 100 100 100 100 100 100 100 100 97 84 79 46 41 95 100 97 85 100 96 100 99 100 100 100 100 100 100 100 100
100 100 100 96 96 100 100 100 100 100 100 100 100 100 100 99 100 100 100 100 100 100 100 90 98 99 96 60 100 100 100 100 100 100 100 100 100 100 100 100 100 100 100
99 100 100 100 100 100 100 100 100 100 100 100 100 100 100 100 100 100 100 100 100 100 100 100 100 100 100 100 94 99 91 100 100 100 100 96 96 81 80 86 100 100 100
88 58 92 100 100 100 100 100 100 100 100 99 100 100 100 100 100 100 100 100 100 100 100 100 100 100 100 100 100 100 100 100 100 100 92 92 100 89 98 100 100 100 99
100 63 79 70 100 95 93 100 99 99 100 100 100 100 100 100 100 100 100 100 98 100 100 100 100 100 100 100 100 100 100 100 100 100 100 100 100 99 100 100 100 99 100
54 91 86 83 76 59 100 100 100 98 84 100 100 100 100 100 100 100 94 44 23 100 100 100 100 100 100 100 100 100 100 100 98 99 91 38 100 100 100 100 100 100 100
100 43 98 67 8 72 95 100 96 99 100 100 100 100 100 100 100 99 32 44 83 100 100 100 100 100 100 100 100 100 100 100 100 93 37 80 100 100 100 100 100 100 99
92 89 70 97 98 88 100 100 89 100 100 100 100 100 100 100 72 67 74 72 100 100 100 100 100 100 100 100 92 100 95 27 26 12 12 26 94 100 100 100 100 100 100
100 100 100 100 100 84 74 100 100 100 100 100 100 47 42 43 100 87 44 86 100 100 100 100 100 100 100 100 100 100 89 49 79 100 42 11 74 48 85 40 22 91 97
100 100 100 100 100 100 54 7 91 84 33 53 100 62 20 27 66 98 56 80 100 100 100 100 100 100 100 100 100 98 99 100 69 23 41 11 9 85 5 6 5 2 1
100 100 100 100 100 97 36 5 5 6 50 19 26 16 5 5 32 82 97 85 100 100 100 100 100 100 100 100 100 100 73 100 100 100 100 10 12 100 100 100 83 13 5
100 99 100 100 100 100 95 94 34 35 11 5 8 52 30 55 16 18 94 99 100 100 100 100 100 100 100 100 100 100 100 100 100 97 47 88 95 48 18 8 5 5 5
100 100 100 100 100 100 31 100 91 13 51 94 18 40 80 97 100 57 83 100 100 100 100 100 100 100 100 100 100 97 100 99 98 98 37 18 5 3 5 5 1 4 5
100 100 100 100 100 100 20 100 100 100 100 98 100 93 61 24 80 87 97 91 97 100 100 83 100 99 100 100 100 100 59 23 19 46 6 6 5 2 5 5 5 5 12
95 100 100 100 99 89 73 100 99 100 98 99 100 100 100 89 10 38 66 97 72 65 96 100 100 100 98 52 72 50 34 22 52 31 8 100 50 9 13 27 5 53 43
99 96 100 100 100 100 97 100 100 100 100 92 100 100 96 43 17 36 60 18 52 55 59 100 97 62 86 97 65 20 18 45 66 46 98 38 26 18 58 16 14 27 5
100 100 100 100 100 100 98 100 100 100 100 100 100 100 100 65 24 12 46 6 64 100 100 55 100 100 100 56 100 82 73 14 8 100 78 41 53 14 61 27 35 5 5